Tracking 29892 objects as of 21-Nov-2024
HD Live streaming from Space Station
objects crossing your sky now

SL-16 DEB

Track SL-16 DEB now!
10-day predictions


NORAD ID: 22415
Int'l Code: 1992-093DG
Perigee: 796.0 km
Apogee: 970.0 km
Inclination: 71.1 °
Period: 102.5 minutes
Semi major axis: 7254 km
RCS: 0.0081 m2 (small)
Launch date: December 25, 1992
Source: Commonwealth of Independent States (former USSR) (CIS)
Launch site: TYURATAM MISSILE AND SPACE COMPLEX (TTMTR)

Note: This is SATELLITE DEBRIS
Your satellite tracking list
Your tracking list is empty




NASA's NSSDC Master Catalog

Two Line Element Set (TLE):
1 22415U 92093DG  24325.14630060  .00001066  00000-0  64416-3 0  9990
2 22415  71.1162 229.5373 0119903 102.9320 258.5221 14.05190587628343
Source of the keplerian elements: AFSPC